[[[{"header":{"parameterUnit":"kt","parameterCategory":2,"dx":1,"dy":1,"la1":30.253999710083008,"la2":30.299108505249023,"lo1":-89.0895004272461,"lo2":-89.04439544677734,"nx":28,"ny":28,"refTime":"2022-10-06T21:00:00:Z","depth":0,"parameterNumber":1,"parameterNumberName":"U-component_of_WINDS"},"data":[-3.4944,-3.495,-3.4947,-3.4952,-3.495,-3.4952,-3.4952,-3.4951,-3.4949,-3.4951,-3.4951,-3.4948,-3.4944,-3.4943,-3.4942,-3.494,-3.494,-3.4944,-3.4941,-3.4925,-3.4923,-3.492,-3.4918,-3.4945,-3.4945,-3.4958,-3.4958,-3.4958,-3.493,-3.4928,-3.493,-3.493,-3.4932,-3.4925,-3.4924,-3.4925,-3.4927,-3.4926,-3.4926,-3.4927,-3.4928,-3.4922,-3.4922,-3.4923,-3.4919,-3.4923,-3.4922,-3.4921,-3.4904,-3.4902,-3.4926,-3.4926,-3.4926,-3.4926,-3.4926,-3.4926,-3.4904,-3.4909,-3.4907,-3.4909,-3.4908,-3.4908,-3.4911,-3.4907,-3.4909,-3.4909,-3.4904,-3.4907,-3.4903,-3.4901,-3.4899,-3.49,-3.4895,-3.4898,-3.4898,-3.4899,-3.4899,-3.4878,-3.49,-3.49,-3.49,-3.49,-3.49,0,-3.4884,-3.488,-3.4883,-3.4884,-3.4886,-3.4886,-3.4886,-3.4888,-3.488,-3.4882,-3.4884,-3.4884,-3.4885,-3.4885,-3.4884,-3.4882,-3.4874,-3.4873,-3.4875,-3.4876,-3.4877,-3.4874,-3.4845,-3.4872,-3.4872,-3.4872,-3.4872,-3.4872,-3.4855,-3.4862,-3.4859,-3.4861,-3.486,-3.4864,-3.4865,-3.4857,-3.4859,-3.4857,-3.4861,-3.4862,-3.4863,-3.4866,-3.4861,-3.4861,-3.4857,-3.4867,-3.4857,-3.4858,-3.4855,-3.4854,-3.4854,-3.4869,-3.4869,-3.487,-3.487,0,-3.4839,-3.4834,-3.4843,-3.484,-3.4839,-3.4845,-3.4842,-3.4846,-3.4842,-3.4847,-3.4847,-3.4841,-3.4843,-3.4836,-3.4837,-3.4833,-3.4841,-3.4838,-3.4841,-3.484,-3.4847,-3.4846,-3.4875,-3.4878,-3.4852,-3.4853,-3.4853,0,-3.4812,-3.4821,-3.4813,-3.4818,-3.4828,-3.482,-3.4829,-3.4827,-3.4825,-3.4829,-3.482,-3.4823,-3.4814,-3.4817,-3.4811,-3.4817,-3.4818,-3.4814,-3.4812,-3.4814,-3.4814,-3.4813,-3.4811,-3.481,-3.481,-3.481,-3.481,0,-3.4786,-3.4793,-3.4803,-3.4803,-3.48,-3.4805,-3.4804,-3.4802,-3.4803,-3.4804,-3.4805,-3.4806,-3.4807,-3.4807,-3.48,-3.4793,-3.4808,-3.4797,-3.4804,-3.4804,-3.4807,-3.4806,-3.4836,-3.481,-3.481,-3.481,-3.481,0,-3.4762,-3.4765,-3.478,-3.4777,-3.4779,-3.4786,-3.4787,-3.4791,-3.479,-3.4787,-3.4788,-3.478,-3.4787,-3.4776,-3.4783,-3.4776,-3.4776,-3.4774,-3.4775,-3.4773,-3.4761,-3.4776,-3.4806,-3.4808,-3.4773,-3.4773,-3.4773,0,-3.4732,-3.4747,-3.4741,-3.4756,-3.4762,-3.4751,-3.4758,-3.4758,-3.4754,-3.4758,-3.4754,-3.4759,-3.4749,-3.4749,-3.4754,-3.475,-3.476,-3.4749,-3.4751,-3.4751,-3.475,-3.4778,-3.4783,-3.48,-3.4769,-3.4769,-3.477,0,-3.4708,-3.4706,-3.471,-3.4709,-3.4709,-3.4715,-3.4723,-3.4726,-3.4729,-3.4731,-3.4736,-3.4743,-3.4736,-3.4737,-3.4731,-3.4737,-3.4753,-3.4728,-3.4728,-3.4731,-3.4767,-3.4772,-3.4775,-3.4748,-3.4748,-3.4749,-3.4767,0,-3.467,-3.4678,-3.4687,-3.4689,-3.4693,-3.4703,-3.4697,-3.4701,-3.4695,-3.4692,-3.4702,-3.4701,-3.4703,-3.4706,-3.4701,-3.4716,-3.4712,-3.4705,-3.4692,-3.4712,-3.4717,-3.472,-3.4685,-3.4684,-3.4684,-3.4684,0,0,-3.4641,-3.4652,-3.4646,-3.4655,-3.4657,-3.4646,-3.4657,-3.4658,-3.4661,-3.4662,-3.4655,-3.4665,-3.4665,-3.4676,-3.4682,-3.4684,-3.4686,-3.468,-3.4703,-3.4705,-3.4707,-3.4713,-3.4716,-3.4683,-3.4683,-3.4683,-3.4683,0,-3.4625,-3.4627,-3.4639,-3.464,-3.4641,-3.4638,-3.4641,-3.464,-3.4638,-3.4649,-3.4639,-3.4644,-3.4653,-3.4653,-3.4654,-3.4678,-3.467,-3.468,-3.4694,-3.47,-3.4703,-3.4705,-3.4712,-3.4714,-3.4682,-3.4682,-3.4682,0,-3.4599,-3.4599,-3.4605,-3.4611,-3.4612,-3.4619,-3.4605,-3.4614,-3.4619,-3.4606,-3.4616,-3.4615,-3.4615,-3.4628,-3.4634,-3.4628,-3.4655,-3.4647,-3.4649,-3.4649,-3.4654,-3.4657,-3.466,-3.4622,-3.4622,-3.4621,0,0,-3.4586,-3.4594,-3.4592,-3.4608,-3.4609,-3.4604,-3.4608,-3.4603,-3.4604,-3.4605,-3.4603,-3.4604,-3.4608,-3.4612,-3.4617,-3.4633,-3.4631,-3.464,-3.4643,-3.4645,-3.4646,-3.4652,-3.4655,-3.4621,-3.4621,-3.4621,0,0,-3.458,-3.4578,-3.4573,-3.4591,-3.4592,-3.4591,-3.46,-3.4593,-3.4597,-3.4595,-3.4587,-3.4586,-3.4599,-3.4598,-3.459,-3.4612,-3.46,-3.4602,-3.4611,-3.4615,-3.4618,-3.4617,-3.4574,0,0,0,0,0,-3.4561,-3.4578,-3.4573,-3.4576,-3.4585,-3.4594,-3.4595,-3.4588,-3.458,-3.4587,-3.4584,-3.4575,-3.4591,-3.4583,-3.4585,-3.4595,-3.4612,-3.4613,-3.4615,-3.4631,-3.4635,-3.4638,0,0,0,0,0,0,-3.4562,-3.4565,-3.4573,-3.4572,-3.4574,-3.4593,-3.4576,-3.4575,-3.4579,-3.4577,-3.4576,-3.4575,-3.457,-3.4582,-3.4584,-3.4593,-3.4574,-3.4612,-3.4614,-3.4615,-3.4632,-3.4635,-3.4638,0,0,0,0,0,-3.4562,-3.4565,-3.4581,-3.4572,-3.4574,-3.457,-3.4576,-3.4575,-3.4577,-3.4573,-3.4572,-3.4572,-3.457,-3.4571,-3.4583,-3.4592,-3.4572,-3.4573,-3.4613,-3.4614,-3.4615,-3.4634,0,0,0,0,0,0,-3.4563,-3.4563,-3.4581,-3.4582,-3.4565,-3.4568,-3.4569,-3.4574,-3.4573,-3.4572,-3.4569,-3.4567,-3.4571,-3.4572,-3.4572,-3.4592,-3.4571,-3.4572,-3.4572,-3.4614,-3.4615,-3.4616,0,0,0,0,0,0,-3.4562,-3.4564,-3.4581,-3.4573,-3.4573,-3.4567,-3.4568,-3.4577,-3.4573,-3.4569,-3.4567,-3.4568,-3.4569,-3.4572,-3.4572,-3.4587,-3.457,-3.4571,-3.4572,-3.4572,-3.4615,-3.4615,0,0,0,0,0,0,-3.4563,-3.4564,-3.4573,-3.4573,-3.4572,-3.4574,-3.4575,-3.4585,-3.4567,-3.4569,-3.4565,-3.4565,-3.457,-3.457,-3.4572,-3.4587,-3.4587,-3.457,-3.4571,-3.4571,-3.4571,0,0,0,0,0,0,0,-3.4563,-3.4556,-3.458,-3.4572,-3.4572,-3.4584,-3.4584,-3.4584,-3.4567,-3.4566,-3.4566,-3.4565,-3.4567,-3.4567,-3.4568,-3.4587,0,0,-3.457,-3.4571,0,0,0,0,0,0,0,0,-3.4555,-3.4556,-3.458,-3.458,-3.458,-3.4584,-3.4584,-3.4584,-3.4567,-3.4566,-3.4566,-3.4565,-3.4567,-3.4567,-3.4568,0,0,0,0,0,0,0,0,0,0,0,0,0,0,0,-3.458,-3.458,0,-3.4584,-3.4584,-3.4584,-3.4567,-3.4566,-3.4566,-3.4565,-3.4567,-3.4568,-3.4568,0,0,0,0,0,0,0,0,0,0,0,0,0,0,0,0,0,0,0,0,0,0,0,0,0,0,0,0,0,0,0,0,0,0,0,0,0,0,0,0,0,0,0,0,0,0,0,0,0,0,0,0,0,0,0,0,0,0,0,0,0,0,0,0,0,0,0,0,0]}],[{"header":{"parameterUnit":"kt","parameterCategory":2,"dx":1,"dy":1,"la1":30.253999710083008,"la2":30.299108505249023,"lo1":-89.0895004272461,"lo2":-89.04439544677734,"nx":28,"ny":28,"refTime":"2022-10-06T21:00:00:Z","depth":0,"parameterNumber":2,"parameterNumberName":"V-component_of_WINDS"},"data":[-7.521,-7.5314,-7.5354,-7.549,-7.5549,-7.5647,-7.5694,-7.5759,-7.5819,-7.5938,-7.6012,-7.6059,-7.6131,-7.6225,-7.6305,-7.6323,-7.6352,-7.6362,-7.6381,-7.6308,-7.63,-7.6292,-7.6271,-7.6369,-7.6369,-7.6451,-7.6452,-7.6452,-7.5154,-7.5214,-7.5299,-7.5406,-7.5478,-7.5493,-7.5578,-7.5636,-7.5722,-7.5796,-7.5872,-7.5977,-7.6064,-7.6133,-7.6222,-7.6268,-7.6277,-7.6288,-7.6284,-7.6295,-7.6219,-7.6196,-7.6279,-7.6279,-7.6279,-7.6279,-7.6279,-7.6279,-7.5064,-7.5125,-7.5214,-7.5305,-7.537,-7.544,-7.5504,-7.5562,-7.5641,-7.5742,-7.577,-7.5866,-7.5945,-7.6069,-7.6118,-7.6191,-7.6184,-7.6207,-7.6212,-7.6216,-7.6217,-7.6092,-7.6208,-7.6208,-7.6208,-7.6208,-7.6208,0,-7.5009,-7.5039,-7.5122,-7.5217,-7.5285,-7.5361,-7.5436,-7.5476,-7.5546,-7.5608,-7.57,-7.5759,-7.5874,-7.5962,-7.6052,-7.6099,-7.6115,-7.6121,-7.6136,-7.6123,-7.6101,-7.6112,-7.5985,-7.6116,-7.6115,-7.6115,-7.6114,-7.6114,-7.4919,-7.4986,-7.5097,-7.515,-7.5201,-7.5284,-7.5341,-7.5398,-7.5455,-7.5553,-7.5602,-7.5693,-7.5768,-7.5905,-7.5965,-7.6049,-7.6057,-7.6103,-7.6069,-7.6056,-7.6056,-7.605,-7.6057,-7.6107,-7.6108,-7.6109,-7.6109,0,-7.4864,-7.4928,-7.5043,-7.5145,-7.5173,-7.5238,-7.5324,-7.5385,-7.5433,-7.5522,-7.5546,-7.562,-7.5707,-7.5761,-7.587,-7.5895,-7.5997,-7.6004,-7.5972,-7.5975,-7.602,-7.6015,-7.6162,-7.6184,-7.6085,-7.6086,-7.6086,0,-7.4811,-7.4895,-7.4985,-7.5048,-7.5144,-7.5199,-7.529,-7.5341,-7.5411,-7.5482,-7.5512,-7.5578,-7.5636,-7.5709,-7.5745,-7.5839,-7.586,-7.5883,-7.5891,-7.588,-7.5876,-7.5906,-7.59,-7.5909,-7.5909,-7.5908,-7.5907,0,-7.4717,-7.4864,-7.4967,-7.501,-7.5126,-7.5172,-7.5221,-7.53,-7.5353,-7.5432,-7.5467,-7.5552,-7.5598,-7.5663,-7.5709,-7.5684,-7.5826,-7.58,-7.5849,-7.5848,-7.5875,-7.5872,-7.5992,-7.5906,-7.5906,-7.5906,-7.5906,0,-7.4682,-7.4765,-7.4906,-7.5003,-7.5038,-7.5105,-7.5196,-7.5266,-7.5346,-7.5375,-7.5436,-7.546,-7.5548,-7.5519,-7.564,-7.5594,-7.5637,-7.5668,-7.5673,-7.5681,-7.5647,-7.5705,-7.5816,-7.5828,-7.5693,-7.5691,-7.5689,0,-7.4556,-7.4716,-7.4765,-7.4896,-7.4977,-7.5007,-7.5082,-7.5152,-7.5197,-7.5269,-7.5317,-7.5397,-7.5388,-7.542,-7.5473,-7.5524,-7.5583,-7.5517,-7.5615,-7.5617,-7.5592,-7.5696,-7.5698,-7.5786,-7.5667,-7.567,-7.5671,0,-7.4466,-7.4608,-7.4628,-7.4679,-7.4784,-7.485,-7.4936,-7.503,-7.5076,-7.5151,-7.5223,-7.5337,-7.5334,-7.5386,-7.5415,-7.5467,-7.5544,-7.5455,-7.5458,-7.5468,-7.5661,-7.5663,-7.5678,-7.5551,-7.5554,-7.5556,-7.5654,0,-7.4397,-7.4485,-7.4542,-7.4653,-7.4714,-7.4799,-7.486,-7.4915,-7.4938,-7.4983,-7.5089,-7.5158,-7.5248,-7.528,-7.5301,-7.5404,-7.5394,-7.5389,-7.5362,-7.543,-7.5464,-7.5478,-7.5308,-7.5308,-7.5307,-7.5307,0,0,-7.426,-7.4387,-7.4437,-7.4524,-7.4578,-7.4607,-7.4692,-7.4747,-7.4856,-7.4892,-7.4878,-7.5049,-7.5104,-7.5225,-7.5252,-7.5288,-7.5311,-7.5284,-7.5398,-7.5408,-7.5417,-7.5452,-7.5466,-7.5306,-7.5306,-7.5306,-7.5306,0,-7.4247,-7.4311,-7.4396,-7.4457,-7.4548,-7.4593,-7.4613,-7.4707,-7.4739,-7.4844,-7.4862,-7.4932,-7.5066,-7.5122,-7.5168,-7.5273,-7.528,-7.5296,-7.5333,-7.5392,-7.5403,-7.5412,-7.5448,-7.5461,-7.5305,-7.5305,-7.5305,0,-7.4168,-7.424,-7.4288,-7.4414,-7.4473,-7.4554,-7.4543,-7.4629,-7.4688,-7.471,-7.4812,-7.4858,-7.4937,-7.5045,-7.5095,-7.5083,-7.5248,-7.5206,-7.521,-7.5215,-7.5275,-7.5288,-7.5299,-7.5152,-7.5151,-7.515,0,0,-7.4147,-7.423,-7.4322,-7.4416,-7.4452,-7.4518,-7.4567,-7.4595,-7.4669,-7.4698,-7.4756,-7.4825,-7.4903,-7.4953,-7.5029,-7.5139,-7.5158,-7.5185,-7.5192,-7.5198,-7.5206,-7.5267,-7.528,-7.5147,-7.5147,-7.5147,0,0,-7.4137,-7.4249,-7.426,-7.4377,-7.4449,-7.4543,-7.4596,-7.4611,-7.4686,-7.4682,-7.4729,-7.4749,-7.4851,-7.4893,-7.4849,-7.502,-7.4993,-7.5004,-7.4988,-7.4998,-7.5005,-7.4992,-7.4843,0,0,0,0,0,-7.4154,-7.4236,-7.4245,-7.4274,-7.4431,-7.4539,-7.4559,-7.4602,-7.4583,-7.4624,-7.4675,-7.468,-7.4879,-7.4841,-7.4867,-7.4914,-7.5111,-7.5117,-7.5123,-7.5129,-7.5139,-7.5147,0,0,0,0,0,0,-7.4166,-7.4201,-7.4243,-7.434,-7.4376,-7.4537,-7.4513,-7.4527,-7.4579,-7.4579,-7.467,-7.4683,-7.4719,-7.4831,-7.4853,-7.4898,-7.4835,-7.5113,-7.5119,-7.5124,-7.5132,-7.514,-7.5147,0,0,0,0,0,-7.4176,-7.4204,-7.4445,-7.4339,-7.437,-7.4448,-7.451,-7.4522,-7.4563,-7.4641,-7.4654,-7.4591,-7.4719,-7.4741,-7.4844,-7.4887,-7.482,-7.4828,-7.5117,-7.5121,-7.5125,-7.5136,0,0,0,0,0,0,-7.4183,-7.4214,-7.4452,-7.4463,-7.4312,-7.4439,-7.4461,-7.4517,-7.4622,-7.4636,-7.4563,-7.4562,-7.472,-7.4737,-7.4753,-7.4881,-7.4808,-7.4816,-7.4821,-7.512,-7.5124,-7.5127,0,0,0,0,0,0,-7.4199,-7.4223,-7.4458,-7.4421,-7.4428,-7.4431,-7.4451,-7.4544,-7.4622,-7.4538,-7.454,-7.4561,-7.4694,-7.4734,-7.4747,-7.4891,-7.4798,-7.4806,-7.4812,-7.4815,-7.5123,-7.5126,0,0,0,0,0,0,-7.4209,-7.423,-7.4419,-7.4424,-7.443,-7.4555,-7.4514,-7.4671,-7.4595,-7.4532,-7.4589,-7.4586,-7.4691,-7.4705,-7.4743,-7.4881,-7.4889,-7.4799,-7.4804,-7.4808,-7.481,0,0,0,0,0,0,0,-7.4218,-7.4071,-7.4388,-7.4426,-7.4432,-7.4564,-7.4567,-7.457,-7.4595,-7.4592,-7.459,-7.4588,-7.4753,-7.4762,-7.4771,-7.4873,0,0,-7.4798,-7.4802,0,0,0,0,0,0,0,0,-7.4063,-7.4069,-7.4389,-7.4391,-7.4393,-7.4565,-7.4567,-7.4569,-7.4594,-7.4592,-7.459,-7.4589,-7.4755,-7.4762,-7.477,0,0,0,0,0,0,0,0,0,0,0,0,0,0,0,-7.4389,-7.4391,0,-7.4565,-7.4567,-7.4569,-7.4594,-7.4592,-7.4591,-7.4589,-7.4757,-7.4763,-7.4769,0,0,0,0,0,0,0,0,0,0,0,0,0,0,0,0,0,0,0,0,0,0,0,0,0,0,0,0,0,0,0,0,0,0,0,0,0,0,0,0,0,0,0,0,0,0,0,0,0,0,0,0,0,0,0,0,0,0,0,0,0,0,0,0,0,0,0,0,0]}]]]